sat.trackr.live / text

‹ back to catalog

STARLINK-34917

NORAD 65190 · 2025-175S

PAYLOAD ACTIVE UNKNOWN

§ Identity

Operator
Country
US
Launch date
2025-08-14
Launch site
AFWTR
Launch vehicle
Mass (kg)
RCS (m²)

Purposes: comms

External: N2YO · Heavens-Above · Gunter

§ Orbital elements

Epoch: 2026-09-20T22:00:03.000096Z

Period
93.91 min
Inclination
97.2848°
Eccentricity
0.0002147
Mean motion
15.33418257 rev/d
Perigee alt
464.2 km
Apogee alt
467.1 km
Semi-major
6,843.8 km
B*
9.2544e-4
RAAN
132.8680°
Arg perigee
93.1233°
Mean anomaly
312.7432°
Rev number
567

§ Raw data

STARLINK-349171 65190U 25175S   26263.91670139  .00029896  00000+0  92544-3 0  99962 65190  97.2848 132.8680 0002147  93.1233 312.7432 15.33418257  5673

JSON: /api/v1/satellites/65190 · /tle

For live sub-satellite position, see the globe view (requires WebGL).

§ Visibility from observer

Set your observer location to see the next 7 days of passes ≥ 10°. The values pass through the URL so the page stays shareable.

No JS? Fill the form by hand. The geolocation button needs JavaScript.